Regional Weather Roundup
Issued by NWS

Home | Current Version | Previous Version | Text Only | Print | Product List | Glossary On
Versions: 1 2 3 4 5 6 7 8 9 10 11 12 13 14 15 16 17 18 19 20 21 22 23 24 25 26 27 28 29 30 31 32 33 34 35 36 37 38 39 40 41 42 43 44 45 46 47 48 49 50
000
ASCA44 KEWX 310020
RWRMX

LATIN AMERICA AND CARIBBEAN REGIONAL WEATHER ROUNDUP
NATIONAL WEATHER SERVICE AUSTIN/SAN ANTONIO TX
600 PM CST FRI JAN 30 2015

NOTE: "FAIR" INDICATED FEW OR NO CLOUDS BELOW 12,000 FEET WITH NO
SIGNIFICANT WEATHER AND/OR OBSTRUCTIONS TO VISIBILITY.

BAJA CALIFORNIA

CITY           SKY/WX    TMP DP  RH WIND       PRES   REMARKS
LORETO         PTSUNNY   70  63  78 CALM      29.84S
LA PAZ         CLOUDY    66  61  82 S9        29.92F
MEXICALI         N/A    N/A N/A N/A MISG        N/A
S.J. DEL CABO  CLOUDY    68  63  83 CALM      29.92R
TIJUANA        CLOUDY    61  48  63 NW8       29.89S

NORTHWESTERN MEXICO

CITY           SKY/WX    TMP DP  RH WIND       PRES   REMARKS
CULIACAN       CLOUDY    72  64  78 NW12      29.93R
DURANGO        MOCLDY    70  36  28 S10       30.08R
GUAYMAS        CLOUDY    68  63  83 CALM      29.83F
HERMOSILLO     LGT RAIN  66  64  94 S6        29.89R
CD. JUAREZ     CLOUDY    46  43  87 NE12      29.99F WCI  41
LOS MOCHIS     DRIZZLE   66  61  82 E9        29.93F
OBREGON        PTSUNNY   64  61  88 E10       29.88R

NORTHEASTERN MEXICO

CITY           SKY/WX    TMP DP  RH WIND       PRES   REMARKS
CHIHUAHUA      CLOUDY    61  37  41 SE8       30.02F
MATAMOROS      MOCLDY    68  63  83 NE9       30.23S
MONCLOVA       DRIZZLE   50  48  93 NE6       30.20S FOG     WCI  48
MONTERREY      CLOUDY    64  57  77 E10       30.13F
NUEVO LAREDO   MOCLDY    70  52  52 SE9       30.19F
PIEDRAS NEGRAS MOCLDY    63  43  48 E6        30.21F
REYNOSA        CLOUDY    66  57  72 E9        30.19S
SALTILLO       CLOUDY    52  45  76 N12       30.19F
TORREON        MOCLDY    68  45  42 NE16      29.98F
CD. VICTORIA   CLOUDY    66  57  72 SE9       30.19R

WESTERN MEXICO

CITY           SKY/WX    TMP DP  RH WIND       PRES   REMARKS
AGUASCALIENTES PTCLDY    68  14  12 S5        30.17F
COLIMA         MOCLDY    75  64  69 SW12      29.97R
DEL BAJIO      MOCLDY    70  30  23 SE5       30.22F
GUADALAJARA    MOCLDY    73  36  25 SE7       30.06F
MAZATLAN       CLOUDY    73  66  78 SW9       29.87R
P. VALLARTA    MOSUNNY   79  68  69 W10       29.85R
URUAPAN        MOCLDY    72  57  60 S7        30.11S
ZACATECAS      MOCLDY    64  27  24 SE23      30.17F

CENTRAL MEXICO

CITY           SKY/WX    TMP DP  RH WIND       PRES   REMARKS
CUERNAVACA     CLEAR     79  23  12 CALM      30.07R
MEXICO CITY    PTCLDY    66  28  24 SE13      30.22S
MORELIA        PTCLDY    68  45  42 S6        30.14R
POZA RICA      CLOUDY    66  61  82 E12       30.18R
PUEBLA         PTCLDY    59  28  31 SE17      30.25R
QUERETARO      MOCLDY    63  37  39 NE14      30.24R
S. LUIS POTOSI CLOUDY    57  37  47 E15G26    30.25R
TAMPICO        CLOUDY    64  63  94 N5        30.17S
TOLUCA         MOCLDY    59  25  27 S15       30.29R

SOUTHERN MEXICO

CITY           SKY/WX    TMP DP  RH WIND       PRES   REMARKS
ACAPULCO       PTCLDY    82  72  69 SW3       29.88S
B. DE HUATULCO CLEAR     86  72  62 CALM      29.87S HX  92
OAXACA         PTCLDY    70  36  28 NE12      30.19S
P. ESCONDIDO   CLEAR     84  66  54 W3        29.99S
VERACRUZ       MOCLDY    70  59  68 NE6       30.14S
ZIHUATANEJO    MOCLDY    84  72  65 SW6       29.87S

YUCATAN PENINSULA

CITY           SKY/WX    TMP DP  RH WIND       PRES   REMARKS
CAMPECHE       CLEAR     73  64  73 NW15      30.07S
CANCUN         PTCLDY    73  63  68 NE5       30.12R
CHETUMAL       MOCLDY    77  72  83 SE6       30.08R
CD. DEL CARMEN CLEAR     73  59  60 N6        30.11R
COZUMEL        PTCLDY    70  63  78 E7        30.12R
MERIDA         CLEAR     73  59  60 N16       30.11S
MINATITLAN     PTCLDY    72  68  88 N12       30.08R
TAPACHULA      CLEAR     82  72  69 CALM      29.85R
TUX. GUTIERREZ PTCLDY    72  55  56 NW18      30.03S
VILLAHERMOSA   MOCLDY    70  63  78 SE5       30.13R

CENTRAL AMERICA

CITY           SKY/WX    TMP DP  RH WIND       PRES   REMARKS
BELIZE CITY    MOCLDY    77  66  69 NE5       30.09R
MANAGUA        PTCLDY    82  64  54 E16       29.86R

CARIBBEAN

CITY           SKY/WX    TMP DP  RH WIND       PRES   REMARKS
ARUBA          PTCLDY    81  73  78 E16       29.86S
CURACAO        PTCLDY    79  70  73 E8        29.89S
KINGSTON       LGT RAIN  81  73  78 N12         N/A
NASSAU         PTCLDY    68  57  68 N3        30.15R
SAN JUAN       PTCLDY    75  72  88 E6        29.99R
SANTO DOMINGO  MOCLDY    73  72  94 NE7       29.97
ST. KITTS      PTCLDY    75  70  83 N6        29.97S
ST. MAARTEN    PTCLDY    77  70  78 VRB3      29.97S

$$




USA.gov is the U.S. government's official web portal to all federal, state and local government web resources and services.